Home > Weather > Sarh > Past weeks

Flag for Chad Weather for the Past 2 Weeks in Sarh, Chad

Now
97 °F

Sunny.


Feels Like: 92 °F
Forecast: 65 / 98 °F
Wind: 9 mph from Northwest

Location: Sarh Airport

Current Time: Feb 12, 2016 at 5:53:16 PM

Latest Report: Feb 12, 2016 at 5:00 PM


Visibility: 10 mi

Pressure: 29.86 "Hg

Humidity: 6%

Dew point: 21 °F

Location of SarhLocation

Historic Weather in Sarh — Graph

°F

Sarh Temperature Yesterday

Maximum temperature yesterday: 97 °F (at 3:00 PM)
Minimum temperature yesterday: 63 °F (at 6:00 AM)
Average temperature yesterday: 79 °F

High & Low Weather Summary for the Past Weeks

 TemperatureHumidityPressure
High102 °F (Feb 5, 2:00 PM)65% (Feb 6, 2:00 AM)30.09 "Hg (Feb 6, 2:00 AM)
Low55 °F (Jan 29, 6:00 AM)6% (Feb 9, 11:00 AM)29.80 "Hg (Feb 5, 5:00 PM)
Average80 °F24%29.95 "Hg
* Reported Jan 28 4:00 PM — Feb 12 4:00 PM, Sarh, Weather by CustomWeather, © 2016

Note: Actual official high and low records may vary slightly from our data, if they occured in-between our weather recording intervals... More about our weather records

Advertising

Sarh Weather History for the Previous 24 Hours

 ConditionsComfort  
Time TempWeatherWind HumidityBarometerVisibility
4:00 PM
Fri, Feb 12
99 °FSunny.No wind12%29.86 "Hg10 mi
2:00 PM97 °FSunny.No wind10%29.89 "Hg10 mi
1:00 PM93 °FSunny.5 mph13%29.95 "Hg10 mi
12:00 PM91 °FSunny.7 mph8%29.95 "Hg10 mi
11:00 AM88 °FSunny.12 mph9%29.98 "Hg10 mi
10:00 AM84 °FSunny.9 mph10%29.98 "Hg10 mi
9:00 AM81 °FSunny.12 mph12%29.98 "Hg10 mi
8:00 AM73 °FSunny.No wind22%30.01 "Hg10 mi
6:00 AM63 °FClear.No wind42%29.95 "Hg10 mi
5:00 AM63 °FClear.No wind42%29.92 "Hg10 mi
4:00 AM63 °FClear.No wind45%29.89 "Hg10 mi
3:00 AM70 °FClear.5 mph31%29.89 "Hg10 mi
2:00 AM66 °FClear.No wind37%29.89 "Hg10 mi
1:00 AM66 °FClear.No wind46%29.89 "Hg10 mi
12:00 AM68 °FClear.No wind38%29.92 "Hg10 mi
11:00 PM
Thu, Feb 11
70 °FClear.No wind31%29.92 "Hg10 mi
10:00 PM73 °FClear.No wind31%29.92 "Hg10 mi
9:00 PM73 °FClear.No wind36%29.92 "Hg10 mi
8:00 PM77 °FClear.No wind30%29.89 "Hg10 mi
7:00 PM84 °FClear.No wind19%29.92 "Hg10 mi
6:00 PM91 °FClear.No wind15%29.89 "Hg10 mi
5:00 PM97 °FSunny.7 mph7%29.89 "Hg10 mi
Weather by CustomWeather, © 2016

See weather overviewHow to use our weather pages